Stations météo

Publicité
Chartres, France (7143): Température de l'air & dewpoint: 22.04.2017 12:00:00 - 28.04.2017 12:00:00 (CEST)Chartres, France (7143): Température de l'air 5cm: 22.04.2017 12:00:00 - 28.04.2017 12:00:00 (CEST)Chartres, France (7143): Température de l'air -20cm & Température de l'air -100cm: 22.04.2017 12:00:00 - 28.04.2017 12:00:00 (CEST)Chartres, France (7143): Vitesse du vent & gusts: 22.04.2017 12:00:00 - 28.04.2017 12:00:00 (CEST)Chartres, France (7143): Direction du vent: 22.04.2017 12:00:00 - 28.04.2017 12:00:00 (CEST)Chartres, France (7143): reduced air pressure: 22.04.2017 12:00:00 - 28.04.2017 12:00:00 (CEST)Chartres, France (7143): visibility: 22.04.2017 12:00:00 - 28.04.2017 12:00:00 (CEST)Chartres, France (7143): Ensoleillement: 22.04.2017 12:00:00 - 28.04.2017 12:00:00 (CEST)Chartres, France (7143): Quantités de précipitations: 22.04.2017 12:00:00 - 28.04.2017 12:00:00 (CEST)
Date & Time tt [°C] td [°C] tt 5cm [°C] tt -20cm [°C] tt -100cm [°C] ff [km/h] ff [knt] fx [km/h] fx [knt] dd ppp [hPa] vv [km] sd [min] rr [mm]
28.04.2017 12:00:00 - - - - - - - - - - - - - -
28.04.2017 11:00:00 9,6 5,9 9,1 10,5 11,3 8 4 19 10 W 1017,7 20 39 0,0
28.04.2017 10:00:00 6,3 4,5 5,3 10,5 11,3 8 5 18 10 W 1017,7 17 4 0,0
28.04.2017 09:00:00 4,7 3,4 4,1 10,5 11,3 8 4 22 12 W 1017,5 10 0 0,2
28.04.2017 08:00:00 4,0 2,8 3,4 10,6 11,3 5 3 13 7 WSW 1017,7 14 0 0,8
28.04.2017 07:00:00 3,7 2,1 2,9 10,6 11,3 4 2 10 6 WSW 1017,8 6 0 1,2
28.04.2017 06:00:00 3,7 0,2 2,0 10,7 11,3 5 3 11 6 W 1017,8 20 0 0,0
28.04.2017 05:00:00 2,8 -0,8 1,5 10,8 11,3 6 4 11 6 SW 1018,1 20 0 0,0
28.04.2017 04:00:00 3,3 -1,3 2,4 10,9 11,3 8 4 13 7 WSW 1018,3 20 0 0,0
28.04.2017 03:00:00 3,2 -1,4 1,7 11,0 11,3 7 4 12 6 WSW 1018,7 20 0 0,0
28.04.2017 02:00:00 3,0 -1,4 -1,3 11,1 11,3 5 3 8 4 WSW 1019,1 20 0 0,0
28.04.2017 01:00:00 4,0 -2,2 0,7 11,2 11,3 4 2 11 6 WNW 1019,2 20 0 0,0
28.04.2017 00:00:00 3,9 -2,7 1,6 11,3 11,3 7 4 11 6 NW 1019,3 20 0 0,0
27.04.2017 23:00:00 4,8 -2,3 2,6 11,4 11,3 6 3 14 7 NW 1019,4 20 0 0,0
27.04.2017 22:00:00 6,0 -1,6 4,2 11,4 11,3 8 4 16 9 NNW 1019,1 20 0 0,0
27.04.2017 21:00:00 7,2 -2,0 6,1 11,4 11,3 9 5 25 14 NNW 1018,7 20 7 0,0
27.04.2017 20:00:00 9,1 -2,8 8,8 11,4 11,3 11 6 29 16 N 1018,2 20 33 0,0
27.04.2017 19:00:00 9,8 -1,9 10,7 11,4 11,3 8 4 28 15 N 1018,3 20 9 0,0
27.04.2017 18:00:00 9,7 -1,4 11,8 11,3 11,3 10 5 29 16 N 1018,1 20 28 0,0
27.04.2017 17:00:00 9,2 -0,7 10,3 11,1 11,3 12 7 24 13 NNE 1018,5 20 23 0,0
27.04.2017 16:00:00 8,4 1,1 9,4 11,0 11,3 15 8 34 18 N 1018,9 20 21 0,0
27.04.2017 15:00:00 8,8 4,4 5,4 10,8 11,3 4 2 31 17 S 1019,1 20 9 0,8
27.04.2017 14:00:00 8,9 0,3 6,5 10,7 11,3 12 6 29 16 NE 1019,2 20 21 0,2
27.04.2017 13:00:00 7,8 -0,7 9,5 10,5 11,3 17 9 32 17 NNW 1019,5 19 26 0,0
27.04.2017 12:00:00 9,1 0,5 10,5 10,4 11,3 13 7 26 14 NNE 1019,8 20 27 0,0
27.04.2017 11:00:00 8,5 2,3 16,0 10,4 11,3 13 7 23 13 N 1019,8 20 57 0,0
27.04.2017 10:00:00 6,6 1,9 12,5 10,4 11,3 11 6 21 11 N 1019,9 20 60 0,0
27.04.2017 09:00:00 3,9 1,4 3,3 10,5 11,3 9 5 21 11 N 1020,0 19 60 0,0
27.04.2017 08:00:00 1,4 0,2 -1,6 10,6 11,3 8 5 15 8 NNW 1019,7 19 16 0,0
27.04.2017 07:00:00 0,0 -0,9 -1,7 10,7 11,3 6 3 14 7 NNW 1019,4 14 0 0,0
27.04.2017 06:00:00 0,1 -0,8 -2,4 10,8 11,3 7 4 14 8 NNW 1019,1 16 0 0,0
27.04.2017 05:00:00 0,1 -1,0 -2,3 10,9 11,3 5 3 13 7 N 1018,9 18 0 0,0
27.04.2017 04:00:00 0,6 -0,6 -1,1 11,0 11,3 7 4 14 8 NNW 1018,8 20 0 0,0
27.04.2017 03:00:00 1,0 -0,5 -0,4 11,1 11,3 7 4 17 9 NNW 1018,7 20 0 0,0
27.04.2017 02:00:00 1,6 -0,2 0,3 11,3 11,3 7 4 16 9 NNW 1018,7 20 0 0,0
27.04.2017 01:00:00 2,0 0,1 -0,1 11,4 11,3 8 4 18 10 NNW 1018,5 20 0 0,0
27.04.2017 00:00:00 2,3 0,4 0,1 11,5 11,3 5 3 16 9 NNW 1018,3 20 0 0,0
26.04.2017 23:00:00 2,8 0,5 0,0 11,6 11,3 9 5 18 10 N 1018,2 20 0 0,0
26.04.2017 22:00:00 3,3 0,9 0,7 11,7 11,3 4 2 10 5 N 1017,7 20 0 0,0
26.04.2017 21:00:00 4,7 1,2 3,1 11,7 11,3 5 3 16 9 N 1016,8 20 15 0,0
26.04.2017 20:00:00 5,7 2,0 6,0 11,7 11,3 7 4 14 8 N 1016,4 20 18 0,0
26.04.2017 19:00:00 5,4 1,3 6,2 11,7 11,3 6 4 29 15 NNW 1016,0 20 0 0,0
26.04.2017 18:00:00 5,5 1,8 4,7 11,6 11,3 23 12 40 22 N 1016,1 20 0 0,2
26.04.2017 17:00:00 6,3 0,6 8,2 11,4 11,3 20 11 43 23 NNE 1016,0 20 12 0,0
26.04.2017 16:00:00 10,2 0,8 14,3 11,2 11,3 15 8 38 21 NNE 1014,9 20 36 0,0
26.04.2017 15:00:00 10,0 0,6 11,7 11,0 11,3 17 9 41 22 N 1014,8 20 35 0,0
26.04.2017 14:00:00 9,3 -0,3 11,0 10,9 11,3 16 9 35 19 N 1014,8 20 25 0,0
26.04.2017 13:00:00 9,5 1,6 8,5 10,9 11,3 7 4 32 18 NNW 1014,8 20 26 0,0
26.04.2017 12:00:00 6,2 0,3 7,4 10,8 11,3 10 5 23 12 NNW 1015,5 20 7 0,0
26.04.2017 11:00:00 7,1 1,0 12,3 10,8 11,3 12 7 28 15 N 1015,0 20 52 0,0
26.04.2017 10:00:00 5,9 0,2 12,3 10,8 11,3 13 7 27 14 N 1014,9 20 60 0,0
26.04.2017 09:00:00 4,0 -0,6 5,4 10,9 11,3 12 7 22 12 N 1014,9 20 60 0,0
26.04.2017 08:00:00 1,6 -1,5 -4,1 11,0 11,3 6 3 12 6 N 1014,5 20 21 0,0
26.04.2017 07:00:00 -0,5 -2,9 -4,1 11,2 11,3 3 1 12 7 N 1013,9 20 0 0,0
26.04.2017 06:00:00 0,0 -2,7 -1,9 11,3 11,3 7 4 18 10 N 1013,8 20 0 0,0
26.04.2017 05:00:00 1,5 -2,3 -0,2 11,4 11,3 10 5 20 11 N 1013,6 20 0 0,0
26.04.2017 04:00:00 1,7 -2,4 0,4 11,5 11,3 11 6 20 11 N 1013,5 20 0 0,0
26.04.2017 03:00:00 1,9 -2,4 0,6 11,7 11,3 8 4 20 11 N 1013,6 20 0 0,0
26.04.2017 02:00:00 2,7 -2,4 1,4 11,7 11,3 10 5 20 11 N 1013,5 20 0 0,0
26.04.2017 01:00:00 3,9 -1,7 3,1 11,8 11,3 9 5 19 10 N 1013,3 20 0 0,0
26.04.2017 00:00:00 5,1 -1,8 4,0 11,9 11,3 13 7 21 11 N 1012,8 20 0 0,0
25.04.2017 23:00:00 6,2 -1,7 5,3 12,0 11,3 11 6 20 11 N 1012,3 20 0 0,0
25.04.2017 22:00:00 6,8 -1,9 5,7 12,1 11,3 9 5 22 12 N 1011,8 20 0 0,0
25.04.2017 21:00:00 7,7 -2,1 6,7 12,1 11,3 9 5 23 12 N 1011,3 20 0 0,0
25.04.2017 20:00:00 8,6 -3,3 8,7 12,1 11,3 13 7 27 14 N 1011,0 20 0 0,0
25.04.2017 19:00:00 9,3 -2,0 10,8 12,0 11,3 14 8 27 15 N 1011,0 20 0 0,0
25.04.2017 18:00:00 9,4 -2,6 12,3 11,9 11,3 14 8 29 15 NNE 1011,4 20 0 0,0
25.04.2017 17:00:00 9,3 -2,3 13,0 11,8 11,3 15 8 30 16 N 1011,7 20 7 0,0
25.04.2017 16:00:00 9,4 -2,6 14,8 11,7 11,3 12 7 28 15 N 1012,1 20 16 0,0
25.04.2017 15:00:00 9,2 -1,0 14,7 11,6 11,3 13 7 27 15 NNE 1012,3 20 4 0,0
25.04.2017 14:00:00 8,1 -1,4 12,0 11,6 11,3 14 8 30 16 N 1012,8 20 0 0,0
25.04.2017 13:00:00 7,7 0,2 9,8 11,6 11,3 11 6 26 14 NNE 1013,3 20 0 0,0
25.04.2017 12:00:00 6,7 -0,1 9,4 11,6 11,3 15 8 26 14 N 1013,5 20 0 0,0
25.04.2017 11:00:00 6,4 -0,1 7,7 11,7 11,3 13 7 27 14 N 1013,3 20 0 0,0
25.04.2017 10:00:00 6,1 2,4 6,5 11,7 11,3 11 6 21 12 N 1012,9 20 0 0,0
25.04.2017 09:00:00 5,6 2,9 5,2 11,8 11,3 11 6 28 15 N 1013,0 20 0 0,0
25.04.2017 08:00:00 5,5 2,8 5,3 11,8 11,3 17 9 39 21 N 1012,8 8 0 0,0
25.04.2017 07:00:00 7,4 3,8 6,5 11,9 11,3 17 9 33 18 N 1011,9 20 0 0,0
25.04.2017 06:00:00 7,5 5,5 5,1 12,0 11,2 8 4 18 10 NNW 1011,4 18 0 0,0
25.04.2017 05:00:00 7,1 4,7 5,3 12,2 11,3 5 3 13 7 WNW 1011,2 19 0 0,0
25.04.2017 04:00:00 7,0 4,5 1,5 12,3 11,3 5 3 10 6 W 1011,4 20 0 0,0
25.04.2017 03:00:00 6,8 3,9 2,2 12,4 11,3 3 2 8 4 W 1011,7 20 0 0,0
25.04.2017 02:00:00 7,8 3,6 5,1 12,5 11,3 6 3 12 6 NW 1011,9 20 0 0,0
25.04.2017 01:00:00 8,2 3,6 4,9 12,6 11,2 6 3 9 5 NW 1012,5 20 0 0,0
25.04.2017 00:00:00 8,2 3,2 3,0 12,7 11,3 5 3 9 5 NW 1012,8 20 0 0,0
24.04.2017 23:00:00 8,9 3,3 4,7 12,8 11,3 5 3 9 5 N 1012,8 20 0 0,0
24.04.2017 22:00:00 10,4 3,2 6,8 12,8 11,2 6 3 21 11 N 1012,9 20 0 0,0
24.04.2017 21:00:00 12,2 3,7 10,8 12,8 11,2 14 8 25 13 N 1012,8 20 20 0,0
24.04.2017 20:00:00 14,4 4,4 14,4 12,7 11,2 10 6 24 13 N 1012,8 20 35 0,0
24.04.2017 19:00:00 16,6 4,0 20,6 12,6 11,2 7 4 21 12 NNW 1012,9 20 60 0,0
24.04.2017 18:00:00 16,5 3,5 23,1 12,4 11,2 11 6 22 12 N 1013,3 20 60 0,0
24.04.2017 17:00:00 16,5 2,5 25,6 12,2 11,2 8 4 25 13 NNW 1013,9 20 60 0,0
24.04.2017 16:00:00 16,3 3,0 23,4 11,9 11,3 9 5 23 12 NNE 1014,7 20 56 0,0
24.04.2017 15:00:00 15,0 1,5 23,5 11,6 11,2 12 7 24 13 NNE 1015,7 20 55 0,0
24.04.2017 14:00:00 14,8 1,7 24,1 11,3 11,2 11 6 21 11 N 1016,6 20 57 0,0
24.04.2017 13:00:00 14,1 0,7 24,9 11,1 11,2 9 5 22 12 N 1017,6 20 60 0,0
24.04.2017 12:00:00 12,9 0,6 22,5 11,0 11,2 9 5 23 13 N 1018,5 20 60 0,0
24.04.2017 11:00:00 12,4 1,1 21,5 11,0 11,2 11 6 18 10 NNE 1018,7 20 60 0,0
24.04.2017 10:00:00 10,3 2,6 17,1 11,0 11,2 7 4 11 6 N 1019,1 20 60 0,0
24.04.2017 09:00:00 7,3 1,6 4,8 11,1 11,2 5 3 9 5 N 1019,9 20 60 0,0
24.04.2017 08:00:00 3,1 0,3 -4,6 11,3 11,2 0 0 6 3 N 1020,1 20 23 0,0
24.04.2017 07:00:00 0,2 -1,6 -4,9 11,5 11,2 0 0 5 3 N 1020,3 20 0 0,0
24.04.2017 06:00:00 0,8 -0,7 -4,7 11,6 11,2 4 2 5 3 NNW 1020,4 20 0 0,0
24.04.2017 05:00:00 0,7 -0,8 -4,3 11,8 11,2 3 2 5 3 NNW 1021,0 20 0 0,0
24.04.2017 04:00:00 1,2 -0,9 -3,8 12,0 11,2 3 2 5 3 NW 1021,5 20 0 0,0
24.04.2017 03:00:00 1,6 -1,0 -3,2 12,1 11,2 3 2 4 2 N 1022,1 20 0 0,0
24.04.2017 02:00:00 3,0 -0,8 -2,3 12,3 11,2 0 0 8 5 N 1022,6 20 0 0,0
24.04.2017 01:00:00 5,6 0,4 0,2 12,4 11,2 7 4 11 6 NNE 1023,0 20 0 0,0
24.04.2017 00:00:00 7,1 0,7 1,3 12,5 11,2 8 4 15 8 NNE 1023,3 20 0 0,0
23.04.2017 23:00:00 8,1 1,0 2,9 12,7 11,2 9 5 18 10 NNE 1023,6 20 0 0,0
23.04.2017 22:00:00 9,1 1,0 4,1 12,7 11,2 10 5 18 10 NNE 1023,8 20 0 0,0
23.04.2017 21:00:00 10,7 1,2 7,3 12,7 11,2 10 6 18 10 NNE 1023,4 20 30 0,0
23.04.2017 20:00:00 13,3 0,6 13,0 12,6 11,2 12 6 26 14 NE 1023,3 20 60 0,0
23.04.2017 19:00:00 14,4 1,0 18,1 12,5 11,2 13 7 29 16 NE 1023,4 20 58 0,0
23.04.2017 18:00:00 15,0 0,8 22,8 12,3 11,2 14 7 31 17 ENE 1023,5 20 58 0,0
23.04.2017 17:00:00 15,1 0,9 24,7 12,0 11,2 14 7 31 17 NNE 1024,1 20 60 0,0
23.04.2017 16:00:00 14,6 -0,7 22,6 11,8 11,2 16 9 35 19 NE 1024,7 20 57 0,0
23.04.2017 15:00:00 14,5 0,3 20,3 11,5 11,2 18 10 32 18 NNE 1025,3 20 51 0,0
23.04.2017 14:00:00 14,2 -0,3 21,1 11,3 11,2 17 9 27 14 NE 1025,9 20 52 0,0
23.04.2017 13:00:00 13,5 1,2 18,6 11,1 11,2 11 6 26 14 NE 1026,5 20 44 0,0
23.04.2017 12:00:00 12,9 0,6 22,9 11,0 11,2 16 8 29 16 E 1027,0 20 60 0,0
23.04.2017 11:00:00 11,9 0,6 19,7 10,9 11,2 14 7 25 14 ENE 1027,4 20 60 0,0
23.04.2017 10:00:00 10,6 1,9 14,6 11,0 11,2 11 6 21 11 ENE 1027,7 20 60 0,0
23.04.2017 09:00:00 7,6 2,1 4,9 11,1 11,2 10 5 18 10 ENE 1027,8 20 60 0,0
23.04.2017 08:00:00 3,9 2,6 -4,0 11,2 11,2 5 3 9 5 NE 1027,7 17 14 0,0
23.04.2017 07:00:00 0,8 -0,4 -4,4 11,4 11,2 2 1 6 4 N 1027,5 8 0 0,0
23.04.2017 06:00:00 2,1 1,4 -4,0 11,5 11,2 4 2 5 3 N 1027,2 7 0 0,0
23.04.2017 05:00:00 2,5 1,2 -3,1 11,7 11,2 2 1 6 3 NNE 1027,1 9 0 0,0
23.04.2017 04:00:00 4,8 3,3 -0,3 11,8 11,2 7 4 10 5 NNE 1027,1 10 0 0,0
23.04.2017 03:00:00 5,8 4,1 0,9 11,9 11,2 8 4 10 6 NNE 1027,1 14 0 0,0
23.04.2017 02:00:00 6,2 4,2 1,6 12,0 11,2 6 4 11 6 NNE 1027,3 18 0 0,0
23.04.2017 01:00:00 7,2 5,0 3,4 12,1 11,2 8 4 13 7 N 1027,1 20 0 0,0
23.04.2017 00:00:00 7,8 5,4 4,0 12,2 11,2 7 4 13 7 NNE 1027,0 19 0 0,0
22.04.2017 23:00:00 8,5 5,9 4,9 12,3 11,2 8 4 16 8 NNE 1026,8 16 0 0,0
22.04.2017 22:00:00 10,0 6,0 7,2 12,3 11,2 10 5 23 13 NNE 1026,3 20 0 0,0
22.04.2017 21:00:00 11,6 6,5 9,8 12,3 11,2 14 8 25 14 NNE 1025,6 20 0 0,0
22.04.2017 20:00:00 13,5 5,9 13,2 12,2 11,2 12 7 27 14 NNE 1025,1 20 19 0,0
22.04.2017 19:00:00 14,9 5,9 15,5 12,1 11,2 14 8 26 14 NNE 1024,9 20 4 0,0
22.04.2017 18:00:00 15,4 4,7 16,9 12,0 11,2 13 7 25 14 N 1025,0 20 13 0,0
22.04.2017 17:00:00 14,9 4,8 18,0 11,9 11,2 10 5 24 13 NNW 1025,4 20 8 0,0
22.04.2017 16:00:00 14,7 5,7 15,7 11,7 11,2 9 5 22 12 NNW 1025,9 20 4 0,0
22.04.2017 15:00:00 15,1 5,6 19,8 11,5 11,2 10 6 22 12 N 1026,5 20 1 0,0
22.04.2017 14:00:00 15,2 6,5 19,5 11,3 11,2 12 6 25 14 N 1026,9 18 16 0,0
22.04.2017 13:00:00 15,1 8,3 21,2 11,1 11,2 9 5 21 11 N 1027,5 17 45 0,0
22.04.2017 12:00:00 13,5 8,1 20,0 11,0 11,2 13 7 20 11 N 1027,9 14 35 0,0

tt = Température de l'air
td = dewpoint
tt 5cm = Température de l'air 5cm
tt -20cm = Température de l'air -20cm
tt -100cm = Température de l'air -100cm
ff = Vitesse du vent
fx = gusts
dd = Direction du vent
ppp = reduced air pressure
vv = visibility
sd = Ensoleillement
rr = Quantités de précipitations

stations d'obs. à proximité